Change the Weather History Date:

Thursday, January 17, 2013

  Actual Average Record
Temperature  
Mean Temperature 50 °F -  
Max Temperature 59 °F 55 °F 64 °F (2007)
Min Temperature 42 °F 39 °F 30 °F (2012)
Degree Days  
Heating Degree Days 14    
Moisture  
Dew Point 45 °F    
Average Humidity 75    
Maximum Humidity 93    
Minimum Humidity 59    
Precipitation  
Precipitation 0.00 in - - ()
Sea Level Pressure  
Sea Level Pressure 29.73 in    
Wind  
Wind Speed 1 mph ()    
Max Wind Speed 8 mph    
Max Gust Speed -    
Visibility 6.2 miles    
Events Rain    
Averages and records for this station are not official NWS values.
T = Trace of Precipitation, MM = Missing Value Source: Averaged Metar Reports

Daily Weather History Graph

Daily Weather History Graph

Search for Another Location

Airport or City:

Trip Planner

Search our weather history database for the weather conditions in past years. The results will help you decide how hot, cold, wet, or windy it might be!

Date:

Astronomy

Jan. 17, 2013 Rise Set
Actual Time 7:39 AM EET 5:32 PM EET
Civil Twilight 7:11 AM EET 6:00 PM EET
Nautical Twilight 6:38 AM EET 6:33 PM EET
Astronomical Twilight 6:07 AM EET 7:04 PM EET
Moon 10:43 AM EET (1/17) 11:57 PM EET (1/17)
Length of Visible Light 10h 49m
Length of Day
9h 52m
Waxing Crescent, 34% of the Moon is Illuminated
Jan 17
Waxing Crescent
Jan 19
First Quarter
Jan 27
Full
Feb 3
Last Quarter
Feb 10
New

Hourly Weather History & Observations

Time (EET) Temp. Windchill Dew Point Humidity Pressure Visibility Wind Dir Wind Speed Gust Speed Precip Events Conditions
12:50 AM 48.2 °F - 39.2 °F 71% 29.71 in 6.2 mi Calm Calm - N/A   Mostly Cloudy
1:50 AM 46.4 °F - 39.2 °F 76% 29.74 in - Calm Calm - N/A   Clear
2:20 AM 48.2 °F - 39.2 °F 71% 29.74 in 6.2 mi Calm Calm - N/A   Scattered Clouds
2:50 AM 46.4 °F - 39.2 °F 76% 29.74 in 6.2 mi Calm Calm - N/A   Scattered Clouds
3:50 AM 42.8 °F - 39.2 °F 87% 29.74 in 6.2 mi Calm Calm - N/A   Scattered Clouds
4:50 AM 42.8 °F - 39.2 °F 87% 29.74 in 6.2 mi Calm Calm - N/A   Scattered Clouds
5:20 AM 42.8 °F - 41.0 °F 93% 29.74 in 6.2 mi Calm Calm - N/A   Scattered Clouds
5:50 AM 44.6 °F 42.2 °F 41.0 °F 87% 29.74 in 6.2 mi NW 4.6 mph - N/A   Mostly Cloudy
6:20 AM 44.6 °F 42.2 °F 39.2 °F 81% 29.74 in 6.2 mi NW 4.6 mph - N/A   Scattered Clouds
6:50 AM 44.6 °F - 41.0 °F 87% 29.74 in 6.2 mi Calm Calm - N/A   Mostly Cloudy
7:20 AM 44.6 °F - 41.0 °F 87% 29.74 in 6.2 mi Calm Calm - N/A   Mostly Cloudy
7:50 AM 44.6 °F 43.1 °F 41.0 °F 87% 29.74 in 6.2 mi Variable 3.5 mph - N/A   Mostly Cloudy
8:20 AM 44.6 °F 43.1 °F 42.8 °F 93% 29.77 in 6.2 mi Variable 3.5 mph - N/A   Mostly Cloudy
8:50 AM 46.4 °F - 42.8 °F 87% 29.77 in 6.2 mi Calm Calm - N/A   Scattered Clouds
9:20 AM 50.0 °F - 44.6 °F 82% 29.77 in 6.2 mi Calm Calm - N/A   Mostly Cloudy
9:50 AM 51.8 °F - 44.6 °F 76% 29.80 in 6.2 mi Calm Calm - N/A   Mostly Cloudy
10:20 AM 55.4 °F - 46.4 °F 72% 29.77 in 6.2 mi Calm Calm - N/A   Mostly Cloudy
10:50 AM 57.2 °F - 44.6 °F 63% 29.77 in 6.2 mi Variable 3.5 mph - N/A   Scattered Clouds
11:20 AM 59.0 °F - 44.6 °F 59% 29.77 in 6.2 mi South 4.6 mph - N/A   Scattered Clouds
11:50 AM 59.0 °F - 44.6 °F 59% 29.77 in 6.2 mi Calm Calm - N/A   Scattered Clouds
12:20 PM 59.0 °F - 44.6 °F 59% 29.74 in 6.2 mi Calm Calm - N/A   Scattered Clouds
12:50 PM 59.0 °F - 44.6 °F 59% 29.74 in 6.2 mi East 3.5 mph - N/A   Scattered Clouds
1:50 PM 59.0 °F - 44.6 °F 59% 29.74 in 6.2 mi South 8.1 mph - N/A   Mostly Cloudy
2:20 PM 57.2 °F - 46.4 °F 67% 29.74 in 6.2 mi SSW 6.9 mph - N/A   Mostly Cloudy
2:50 PM 57.2 °F - 46.4 °F 67% 29.74 in 6.2 mi Calm Calm - N/A   Drizzle
3:20 PM 57.2 °F - 50.0 °F 77% 29.74 in 5.0 mi SSW 4.6 mph - N/A Rain Light Rain
3:50 PM 57.2 °F - 50.0 °F 77% 29.71 in 6.2 mi Calm Calm - N/A   Mostly Cloudy
4:20 PM 57.2 °F - 50.0 °F 77% 29.71 in 6.2 mi Calm Calm - N/A   Mostly Cloudy
4:50 PM 57.2 °F - 48.2 °F 72% 29.71 in 6.2 mi Calm Calm - N/A   Mostly Cloudy
5:20 PM 55.4 °F - 48.2 °F 77% 29.71 in 6.2 mi Calm Calm - N/A   Mostly Cloudy
5:50 PM 57.2 °F - 48.2 °F 72% 29.71 in 6.2 mi SSW 4.6 mph - N/A   Mostly Cloudy
6:20 PM 55.4 °F - 48.2 °F 77% 29.71 in 6.2 mi Calm Calm - N/A   Mostly Cloudy
6:50 PM 55.4 °F - 48.2 °F 77% 29.71 in 6.2 mi Calm Calm - N/A   Mostly Cloudy
7:20 PM 57.2 °F - 48.2 °F 72% 29.71 in 6.2 mi Calm Calm - N/A   Mostly Cloudy
7:50 PM 57.2 °F - 48.2 °F 72% 29.71 in 6.2 mi WSW 3.5 mph - N/A   Mostly Cloudy
8:20 PM 55.4 °F - 48.2 °F 77% 29.71 in 6.2 mi Calm Calm - N/A   Mostly Cloudy
8:50 PM 55.4 °F - 50.0 °F 82% 29.71 in 6.2 mi Calm Calm - N/A   Mostly Cloudy
9:20 PM 55.4 °F - 50.0 °F 82% 29.71 in 6.2 mi Calm Calm - N/A   Scattered Clouds
9:50 PM 57.2 °F - 46.4 °F 67% 29.68 in 6.2 mi Calm Calm - N/A   Scattered Clouds
10:20 PM 59.0 °F - 46.4 °F 63% 29.68 in 6.2 mi South 8.1 mph - N/A   Scattered Clouds
10:50 PM 59.0 °F - 46.4 °F 63% 29.68 in 6.2 mi South 6.9 mph - N/A   Overcast
11:50 PM 59.0 °F - 50.0 °F 72% 29.65 in 6.2 mi SSE 8.1 mph - N/A   Mostly Cloudy